Regional Weather Roundup
Issued by NWS Lake Charles, LA

Home | Current Version | Previous Version | Text Only | Print | Product List | Glossary On
Versions: 1 2 3 4 5 6 7 8 9 10 11 12 13 14 15 16 17 18 19 20 21 22 23 24 25 26 27
000
ASUS44 KLCH 250110
RWRLCH
REGIONAL WEATHER ROUNDUP
NATIONAL WEATHER SERVICE LAKE CHARLES LA
800 PM CDT TUE MAY 24 2016

Note: "fair" indicates few or no clouds below 12,000 feet with no
significant weather and/or obstructions to visibility.


ACROSS SOUTHEAST TEXAS

CITY           SKY/WX    TMP DP  RH WIND       PRES   REMARKS
BEAUMONT       MOCLDY    80  75  84 SE12      30.00R
BEAUMONT CITY  FAIR      81  74  79 SE8G18    30.00R
ORANGE         MOCLDY    80  73  79 SE10      30.02R
JASPER         CLEAR     80  72  76 SE3       30.02R
$$

ACROSS CENTRAL LOUISIANA

CITY           SKY/WX    TMP DP  RH WIND       PRES   REMARKS
LEESVILLE      PTCLDY    82  72  73 S12       30.01R
FULLERTON      FAIR      82  69  64 VRB3      29.99R
ALEXANDRIA INT CLEAR     82  69  64 S8        29.99R
ESLER FIELD    CLEAR     84  70  62 S3        30.02R
DERIDDER       FAIR      82  73  75 SE6       30.03R
OAKDALE        CLEAR     80  72  75 S5        30.02R
OPELOUSAS      FAIR      80  71  71 S7        30.03R
$$

ACROSS SOUTHWEST AND SOUTH CENTRAL LOUISIANA

CITY           SKY/WX    TMP DP  RH WIND       PRES   REMARKS
SULPHUR        CLEAR     81  74  80 SE13      30.02R
LAKE CHARLES   PTCLDY    80  74  81 S10       30.01S
CHENNAULT INT  NOT AVBL
CAMERON PHI    CLOUDY    81  75  83 SE18      30.04R
DEQUINCY       FAIR      80  74  83 S6        30.01R
JENNINGS       FAIR      81  73  78 SE10      30.02R
LAFAYETTE      CLEAR     82  71  69 S10       30.04R
NEW IBERIA     CLEAR     80  72  76 S10       30.05R
ABBEVILLE      FAIR      78  74  88 SE8       30.05R
PATTERSON      CLEAR     79  73  83 SE6       30.06R
SALT POINT       N/A     79  74  84 SE7       30.04R
$$

SELECTED SITES ACROSS THE REGION

CITY           SKY/WX    TMP DP  RH WIND       PRES   REMARKS
HOUSTON BUSH   MOCLDY    79  74  84 SE16      29.97R
HOUSTON HOBBY  MOCLDY    82  72  71 SE8G17    29.97R
GALVESTON      MOCLDY    80  77  90 SE10      30.00R
COLLEGE STAT   CLOUDY    83  75  77 S12       29.94R
CONROE         PTCLDY    80  73  79 SE9       29.97R
HUNTSVILLE     MOCLDY    83  73  72 VRB5      29.96R
LUFKIN         PTCLDY    80  73  79 SE9       29.96R
SHREVEPORT     CLOUDY    84  72  67 SE8       29.98R
MONROE         CLEAR     83  69  62 SE3       30.02R
NATCHEZ MS     CLEAR     82  66  57 S3        30.05R
BATON ROUGE    CLEAR     80  70  71 E10       30.05R
N.O. INTL ARPT PTCLDY    81  71  71 SE10      30.07R
SLIDELL        PTCLDY    78  70  76 SE7       30.08S
$$

MARINE REPORTS

STATION/POSITION TIME  SKY/WX   TEMP    WIND        PRES    VSBY
                                AIR SEA DIR/SP/G
                 (UTC)          (F)     (DEG/KT/KT) (MB)    (MI)
BUOY 30 S HIGH I 0050            80 80  120/ 12/ 14 1014.9R
WVE H/P(F/S)=  4/ 6

SEA RIM ST PARK  0100            79     120/ 12/ 15 1016.5R
PORT ARTHUR      0000                               1015.9F
SABINE PASS N    0000            80                 1017.1F
TEXAS POINT      NOT AVBL
CALCASIEU PASS   0000            80                 1015.3F
LK CHARLES BEACH 0000            83                 1016.4F
MARSH ISLAND     0000            80                   N/A
FRESH WATER LOCK 0000            80                 1017.7F
AMERADA PASS     0000            81                 1017.2F
$$




USA.gov is the U.S. government's official web portal to all federal, state and local government web resources and services.